Location: ??????
(38.0131°N, 23.7723°E)
Time: 18:15:35
(UTC+00:00)

METEOR 2-5 DEB - Pass Details

Date: 13 August 2022
Orbit: 809 x 849 km, 81.2° (Epoch: 29 September)

Event Time Altitude Azimuth Distance (km) Brightness Sun altitude
Rises 18:28:21 0° 7° (N) 3,357 ? -12.9°
Reaches altitude 10° 18:31:30 10° 25° (NNE) 2,413 ? -13.4°
Maximum altitude 18:35:16 19° 69° (ENE) 1,862 ? -14.1°
Enters shadow 18:36:54 17° 92° (E) 1,972 ? -14.3°
